When you browse on this site, cookies collect data to enhance your experience and personalize the content and advertising you see.
Visit our Privacy Policy to learn more. By continuing to use the site, you agree to this use of cookies and data.
  • Em Portugal
  • Lista de países
  • Para 7 dias
  • Temperatura da água
  • Mapa do tempo
  • Widgets de tempo
  • user-avatar
    Iniciar Sessão

    Previsão horária em Barra

    Hoje, 23 Setembro, Segunda-feira

    Tempo Temperatura Precipitação Vento Pressão Humidade
    00:00 +19°C° 0.1 mm 3 m/s 755 mmHg 91%
    01:00 +19°C° 0.1 mm 3 m/s 754 mmHg 92%
    02:00 +19°C° 0.1 mm 3 m/s 754 mmHg 93%
    03:00 +19°C° 0.1 mm 3 m/s 754 mmHg 93%
    04:00 +19°C° 0 mm 3 m/s 754 mmHg 94%
    05:00 +19°C° 0.2 mm 3 m/s 754 mmHg 93%
    06:00 +20°C° 0.2 mm 3 m/s 754 mmHg 92%
    07:00 +20°C° 0.2 mm 4 m/s 755 mmHg 91%
    08:00 +21°C° 0.3 mm 4 m/s 755 mmHg 87%
    09:00 +22°C° 0.3 mm 4 m/s 755 mmHg 83%
    10:00 +25°C° 0 mm 4 m/s 755 mmHg 76%
    11:00 +26°C° 0.1 mm 5 m/s 754 mmHg 68%
    12:00 +27°C° 0.1 mm 5 m/s 753 mmHg 61%
    13:00 +28°C° 0.1 mm 5 m/s 753 mmHg 54%
    14:00 +27°C° 0 mm 5 m/s 753 mmHg 55%
    15:00 +27°C° 0 mm 4 m/s 752 mmHg 55%
    16:00 +26°C° 0 mm 4 m/s 752 mmHg 56%
    17:00 +23°C° 0 mm 4 m/s 753 mmHg 66%
    18:00 +22°C° 0 mm 3 m/s 753 mmHg 75%
    19:00 +20°C° 0 mm 3 m/s 753 mmHg 84%
    20:00 +19°C° 0 mm 3 m/s 754 mmHg 87%
    21:00 +19°C° 0 mm 2 m/s 754 mmHg 89%
    22:00 +19°C° 0 mm 2 m/s 754 mmHg 92%
    23:00 +19°C° 0 mm 2 m/s 754 mmHg 92%

    Amanhã, 24 Setembro, Terça-feira

    Tempo Temperatura Precipitação Vento Pressão Humidade
    00:00 +19°C° 0 mm 2 m/s 754 mmHg 92%
    01:00 +19°C° 0 mm 2 m/s 753 mmHg 92%
    02:00 +19°C° 0.1 mm 2 m/s 753 mmHg 92%
    03:00 +18°C° 0.1 mm 3 m/s 753 mmHg 93%
    04:00 +18°C° 0.1 mm 3 m/s 753 mmHg 94%
    05:00 +19°C° 0 mm 3 m/s 753 mmHg 93%
    06:00 +19°C° 0 mm 3 m/s 753 mmHg 91%
    07:00 +20°C° 0 mm 3 m/s 753 mmHg 90%
    08:00 +21°C° 0 mm 3 m/s 753 mmHg 82%
    09:00 +24°C° 0 mm 3 m/s 754 mmHg 74%
    10:00 +25°C° 0 mm 4 m/s 754 mmHg 66%
    11:00 +26°C° 0 mm 4 m/s 753 mmHg 64%
    12:00 +27°C° 0 mm 4 m/s 753 mmHg 62%
    13:00 +27°C° 0 mm 5 m/s 753 mmHg 60%
    14:00 +27°C° 0 mm 5 m/s 752 mmHg 60%
    15:00 +27°C° 0 mm 5 m/s 752 mmHg 60%
    16:00 +27°C° 0 mm 4 m/s 752 mmHg 60%
    17:00 +25°C° 0 mm 4 m/s 752 mmHg 70%
    18:00 +22°C° 0 mm 4 m/s 753 mmHg 80%
    19:00 +20°C° 0 mm 4 m/s 753 mmHg 90%
    20:00 +20°C° 0.1 mm 4 m/s 754 mmHg 91%
    21:00 +20°C° 0.1 mm 4 m/s 754 mmHg 93%
    22:00 +20°C° 0.1 mm 3 m/s 755 mmHg 94%
    23:00 +20°C° 0.1 mm 4 m/s 754 mmHg 94%

    Depois de amanhã, 25 Setembro, Quarta-feira

    Tempo Temperatura Precipitação Vento Pressão Humidade
    00:00 +19°C° 0.1 mm 4 m/s 754 mmHg 94%
    01:00 +19°C° 0.1 mm 4 m/s 753 mmHg 93%
    02:00 +19°C° 0.1 mm 3 m/s 753 mmHg 92%
    03:00 +19°C° 0.1 mm 3 m/s 753 mmHg 91%
    04:00 +19°C° 0.1 mm 3 m/s 753 mmHg 90%
    05:00 +20°C° 0 mm 3 m/s 753 mmHg 89%
    06:00 +20°C° 0 mm 3 m/s 753 mmHg 88%
    07:00 +20°C° 0 mm 3 m/s 754 mmHg 87%
    08:00 +22°C° 0.1 mm 4 m/s 754 mmHg 79%
    09:00 +23°C° 0.1 mm 4 m/s 754 mmHg 71%
    10:00 +26°C° 0.1 mm 4 m/s 754 mmHg 62%
    11:00 +26°C° 0 mm 4 m/s 754 mmHg 59%
    12:00 +27°C° 0 mm 5 m/s 753 mmHg 56%
    13:00 +28°C° 0 mm 5 m/s 753 mmHg 53%
    14:00 +27°C° 0 mm 5 m/s 752 mmHg 55%
    15:00 +27°C° 0 mm 5 m/s 752 mmHg 57%
    16:00 +26°C° 0 mm 4 m/s 752 mmHg 58%
    17:00 +25°C° 0 mm 4 m/s 752 mmHg 67%
    18:00 +22°C° 0 mm 4 m/s 753 mmHg 76%
    19:00 +21°C° 0 mm 4 m/s 753 mmHg 84%
    20:00 +20°C° 0.1 mm 4 m/s 754 mmHg 86%
    21:00 +20°C° 0.1 mm 4 m/s 754 mmHg 88%
    22:00 +20°C° 0.1 mm 4 m/s 754 mmHg 90%
    23:00 +20°C° 0.1 mm 4 m/s 754 mmHg 90%

    26 Setembro, Quinta-feira

    Tempo Temperatura Precipitação Vento Pressão Humidade
    00:00 +20°C° 0.1 mm 4 m/s 754 mmHg 91%
    01:00 +20°C° 0.1 mm 4 m/s 753 mmHg 91%
    02:00 +20°C° 0.2 mm 4 m/s 753 mmHg 90%
    03:00 +20°C° 0.2 mm 4 m/s 753 mmHg 90%
    04:00 +20°C° 0.2 mm 4 m/s 753 mmHg 90%
    05:00 +20°C° 0.1 mm 4 m/s 753 mmHg 89%
    06:00 +21°C° 0.1 mm 4 m/s 754 mmHg 88%
    07:00 +21°C° 0.1 mm 3 m/s 754 mmHg 86%
    08:00 +22°C° 0.1 mm 4 m/s 754 mmHg 80%
    09:00 +25°C° 0.1 mm 4 m/s 754 mmHg 74%
    10:00 +26°C° 0.1 mm 4 m/s 754 mmHg 67%
    11:00 +26°C° 0 mm 4 m/s 753 mmHg 63%
    12:00 +27°C° 0 mm 4 m/s 753 mmHg 58%
    13:00 +28°C° 0 mm 5 m/s 752 mmHg 53%
    14:00 +27°C° 0 mm 5 m/s 752 mmHg 55%
    15:00 +27°C° 0 mm 5 m/s 752 mmHg 57%
    16:00 +27°C° 0 mm 5 m/s 752 mmHg 59%
    17:00 +25°C° 0 mm 4 m/s 752 mmHg 68%
    18:00 +22°C° 0 mm 4 m/s 752 mmHg 78%
    19:00 +20°C° 0 mm 3 m/s 753 mmHg 87%
    20:00 +20°C° 0 mm 3 m/s 753 mmHg 88%
    21:00 +20°C° 0 mm 3 m/s 753 mmHg 89%
    22:00 +19°C° 0 mm 3 m/s 754 mmHg 91%
    23:00 +19°C° 0.1 mm 3 m/s 754 mmHg 91%

    27 Setembro, Sexta-feira

    Tempo Temperatura Precipitação Vento Pressão Humidade
    00:00 +19°C° 0.1 mm 3 m/s 753 mmHg 92%
    01:00 +19°C° 0.1 mm 2 m/s 753 mmHg 92%
    02:00 +19°C° 0 mm 3 m/s 753 mmHg 92%
    03:00 +19°C° 0 mm 3 m/s 753 mmHg 91%
    04:00 +19°C° 0 mm 3 m/s 753 mmHg 91%
    05:00 +19°C° 0 mm 3 m/s 753 mmHg 89%
    06:00 +20°C° 0 mm 3 m/s 753 mmHg 87%
    07:00 +20°C° 0 mm 2 m/s 754 mmHg 85%
    08:00 +22°C° 0 mm 3 m/s 754 mmHg 76%
    09:00 +25°C° 0 mm 3 m/s 754 mmHg 67%
    10:00 +27°C° 0 mm 3 m/s 754 mmHg 58%
    11:00 +27°C° 0 mm 4 m/s 753 mmHg 57%
    12:00 +28°C° 0 mm 4 m/s 752 mmHg 56%
    13:00 +28°C° 0 mm 5 m/s 752 mmHg 55%
    14:00 +28°C° 0 mm 4 m/s 752 mmHg 57%
    15:00 +28°C° 0 mm 4 m/s 751 mmHg 59%
    16:00 +27°C° 0 mm 4 m/s 751 mmHg 60%
    17:00 +25°C° 0 mm 3 m/s 751 mmHg 69%
    18:00 +22°C° 0 mm 3 m/s 752 mmHg 78%
    19:00 +21°C° 0 mm 2 m/s 753 mmHg 87%
    20:00 +20°C° 0.1 mm 2 m/s 753 mmHg 89%
    21:00 +20°C° 0.1 mm 2 m/s 753 mmHg 91%
    22:00 +20°C° 0.1 mm 2 m/s 754 mmHg 93%
    23:00 +20°C° 0.1 mm 2 m/s 753 mmHg 93%

    28 Setembro, Sábado

    Tempo Temperatura Precipitação Vento Pressão Humidade
    00:00 +20°C° 0.1 mm 2 m/s 753 mmHg 94%
    01:00 +20°C° 0.1 mm 2 m/s 752 mmHg 94%
    02:00 +20°C° 0 mm 2 m/s 752 mmHg 94%
    03:00 +20°C° 0 mm 2 m/s 752 mmHg 94%
    04:00 +19°C° 0 mm 2 m/s 752 mmHg 94%
    05:00 +20°C° 0 mm 2 m/s 752 mmHg 92%
    06:00 +20°C° 0 mm 2 m/s 753 mmHg 91%
    07:00 +21°C° 0 mm 2 m/s 753 mmHg 89%
    08:00 +24°C° 0 mm 2 m/s 753 mmHg 79%
    09:00 +26°C° 0 mm 3 m/s 753 mmHg 68%
    10:00 +28°C° 0 mm 3 m/s 753 mmHg 58%
    11:00 +28°C° 0 mm 3 m/s 753 mmHg 56%
    12:00 +28°C° 0 mm 4 m/s 752 mmHg 55%
    13:00 +29°C° 0 mm 4 m/s 752 mmHg 53%
    14:00 +28°C° 0 mm 4 m/s 751 mmHg 54%
    15:00 +28°C° 0 mm 3 m/s 751 mmHg 55%
    16:00 +27°C° 0 mm 3 m/s 751 mmHg 57%
    17:00 +25°C° 0 mm 3 m/s 751 mmHg 67%
    18:00 +23°C° 0 mm 2 m/s 752 mmHg 77%
    19:00 +20°C° 0 mm 2 m/s 752 mmHg 87%
    20:00 +20°C° 0 mm 2 m/s 753 mmHg 88%
    21:00 +20°C° 0 mm 2 m/s 753 mmHg 90%
    22:00 +20°C° 0 mm 2 m/s 753 mmHg 92%
    23:00 +20°C° 0 mm 2 m/s 753 mmHg 90%
    Mostrar mais